,,,PA_Meas_PMT16A,,PR_Meas_QMR101_102,,RH_Meas_QMH101,,SR_Meas_QMS101,,TA_Meas_QMH101,,GenWind,,GenWind,
date,time,status,PA,status,PR,status,RH,status,SR,status,TA,status,DirAvg,status,SpdAvg,
2009-11-20, 00:00:04,VALID,999.764,VALID,0,VALID,91.09,VALID,0,VALID,24.4233,VALID,67,VALID,0.384766,
2009-11-20, 00:01:04,VALID,999.739,VALID,0,VALID,90.9527,VALID,0,VALID,24.4233,VALID,67,VALID,0.409375,
2009-11-20, 00:02:04,VALID,999.715,VALID,0,VALID,91.0214,VALID,0,VALID,24.4019,VALID,67,VALID,0.441797,
2009-11-20, 00:03:04,VALID,999.688,VALID,0,VALID,91.029,VALID,0,VALID,24.4019,VALID,67,VALID,0.565234,
2009-11-20, 00:04:04,VALID,999.675,VALID,0,VALID,91.0519,VALID,0,VALID,24.4019,VALID,58,VALID,0.798437,
2009-11-20, 00:05:04,VALID,999.666,VALID,0,VALID,90.9832,VALID,0.112286,VALID,24.4037,VALID,50,VALID,0.938281,
2009-11-20, 00:06:04,VALID,999.668,VALID,0,VALID,90.8001,VALID,0,VALID,24.3433,VALID,41,VALID,0.985156,
2009-11-20, 00:07:04,VALID,999.646,VALID,0,VALID,90.7849,VALID,0,VALID,24.3238,VALID,37,VALID,1.01953,
2009-11-20, 00:08:04,VALID,999.612,VALID,0,VALID,90.823,VALID,0,VALID,24.3043,VALID,36,VALID,0.771094,
2009-11-20, 00:09:04,VALID,999.623,VALID,0,VALID,91.0366,VALID,0,VALID,24.3062,VALID,36,VALID,0.778906,
2009-11-20, 00:10:04,VALID,999.551,VALID,0,VALID,91.3418,VALID,0,VALID,24.2866,VALID,37,VALID,0.766797,
2009-11-20, 00:11:04,VALID,999.551,VALID,0,VALID,91.5249,VALID,0,VALID,24.2458,VALID,38,VALID,0.621875,
2009-11-20, 00:12:04,VALID,999.517,VALID,0,VALID,91.6699,VALID,0,VALID,24.2067,VALID,38,VALID,0.664453,
2009-11-20, 00:13:04,VALID,999.539,VALID,0,VALID,91.7691,VALID,0,VALID,24.2067,VALID,38,VALID,0.371094,
2009-11-20, 00:14:04,VALID,999.507,VALID,0,VALID,91.8301,VALID,0.112286,VALID,24.1677,VALID,38,VALID,0.225391,
2009-11-20, 00:15:04,VALID,999.52,VALID,0,VALID,91.8683,VALID,0,VALID,24.1696,VALID,38,VALID,0.0382813,
2009-11-20, 00:16:04,VALID,999.495,VALID,0,VALID,91.9522,VALID,0,VALID,24.15,VALID,39,VALID,0.303516,
2009-11-20, 00:17:04,VALID,999.506,VALID,0,VALID,92.0666,VALID,0,VALID,24.1305,VALID,39,VALID,0.453125,
2009-11-20, 00:18:04,VALID,999.468,VALID,0,VALID,92.12,VALID,0,VALID,24.1305,VALID,39,VALID,0.325781,
2009-11-20, 00:19:04,VALID,999.461,VALID,0,VALID,92.1582,VALID,0,VALID,24.1324,VALID,39,VALID,0.330469,
2009-11-20, 00:20:04,VALID,999.441,VALID,0,VALID,92.1811,VALID,0,VALID,24.1324,VALID,39,VALID,0.126953,
2009-11-20, 00:21:04,VALID,999.408,VALID,0,VALID,92.2421,VALID,0,VALID,24.111,VALID,39,VALID,0,
2009-11-20, 00:22:04,VALID,999.384,VALID,0,VALID,92.2879,VALID,0,VALID,24.111,VALID,39,VALID,0,
2009-11-20, 00:23:04,VALID,999.379,VALID,0,VALID,92.2955,VALID,0,VALID,24.111,VALID,39,VALID,0,
2009-11-20, 00:24:04,VALID,999.392,VALID,0,VALID,92.326,VALID,0,VALID,24.111,VALID,39,VALID,0,
2009-11-20, 00:25:04,VALID,999.336,VALID,0,VALID,92.3413,VALID,0,VALID,24.111,VALID,39,VALID,0,
2009-11-20, 00:26:04,VALID,999.339,VALID,0,VALID,92.3184,VALID,0,VALID,24.1305,VALID,39,VALID,0,
2009-11-20, 00:27:04,VALID,999.354,VALID,0,VALID,92.3871,VALID,0,VALID,24.1305,VALID,39,VALID,0,
2009-11-20, 00:28:04,VALID,999.331,VALID,0,VALID,92.3947,VALID,0,VALID,24.1519,VALID,39,VALID,0,
2009-11-20, 00:29:04,VALID,999.336,VALID,0,VALID,92.3947,VALID,0,VALID,24.1305,VALID,39,VALID,0,
2009-11-20, 00:30:04,VALID,999.321,VALID,0,VALID,92.3566,VALID,0,VALID,24.15,VALID,39,VALID,0,
2009-11-20, 00:31:04,VALID,999.32,VALID,0,VALID,92.326,VALID,0,VALID,24.1305,VALID,39,VALID,0,
2009-11-20, 00:32:04,VALID,999.321,VALID,0,VALID,92.3642,VALID,0,VALID,24.15,VALID,39,VALID,0,
2009-11-20, 00:33:04,VALID,999.314,VALID,0,VALID,92.3642,VALID,0,VALID,24.1305,VALID,39,VALID,0,
2009-11-20, 00:34:04,VALID,999.298,VALID,0,VALID,92.3718,VALID,0,VALID,24.15,VALID,39,VALID,0,
2009-11-20, 00:35:04,VALID,999.264,VALID,0,VALID,92.3337,VALID,0,VALID,24.111,VALID,39,VALID,0,
2009-11-20, 00:36:04,VALID,999.229,VALID,0,VALID,92.3337,VALID,0,VALID,24.111,VALID,39,VALID,0,
2009-11-20, 00:37:04,VALID,999.213,VALID,0,VALID,92.1963,VALID,0,VALID,24.1128,VALID,39,VALID,0,
2009-11-20, 00:38:04,VALID,999.205,VALID,0,VALID,92.0971,VALID,0,VALID,24.0525,VALID,39,VALID,0,
2009-11-20, 00:39:04,VALID,999.171,VALID,0,VALID,92.3794,VALID,0,VALID,24.0329,VALID,39,VALID,0,
2009-11-20, 00:40:04,VALID,999.143,VALID,0,VALID,92.6007,VALID,0,VALID,24.0933,VALID,39,VALID,0,
2009-11-20, 00:41:04,VALID,999.137,VALID,0,VALID,92.6312,VALID,0,VALID,24.1128,VALID,39,VALID,0,
2009-11-20, 00:42:04,VALID,999.145,VALID,0,VALID,92.5778,VALID,0,VALID,24.1324,VALID,39,VALID,0,
2009-11-20, 00:43:04,VALID,999.155,VALID,0,VALID,92.3794,VALID,0,VALID,24.111,VALID,39,VALID,0,
2009-11-20, 00:44:04,VALID,999.157,VALID,0,VALID,92.3337,VALID,0,VALID,24.1324,VALID,39,VALID,0,
2009-11-20, 00:45:04,VALID,999.186,VALID,0,VALID,92.2497,VALID,0,VALID,24.111,VALID,39,VALID,0,
2009-11-20, 00:46:04,VALID,999.237,VALID,0,VALID,92.2497,VALID,0,VALID,24.111,VALID,39,VALID,0,
2009-11-20, 00:47:04,VALID,999.224,VALID,0,VALID,92.2116,VALID,0,VALID,24.0897,VALID,33,VALID,0.512891,
2009-11-20, 00:48:04,VALID,999.214,VALID,0,VALID,92.2879,VALID,0,VALID,24.111,VALID,22,VALID,0.503125,
2009-11-20, 00:49:04,VALID,999.199,VALID,0,VALID,92.3184,VALID,0,VALID,24.1305,VALID,22,VALID,0.698438,
2009-11-20, 00:50:04,VALID,999.191,VALID,0,VALID,92.3337,VALID,0,VALID,24.1287,VALID,20,VALID,0.517969,
2009-11-20, 00:51:04,VALID,999.156,VALID,0,VALID,92.1963,VALID,0,VALID,24.1305,VALID,20,VALID,0.417578,
2009-11-20, 00:52:04,VALID,999.114,VALID,0,VALID,92.1734,VALID,0,VALID,24.1092,VALID,20,VALID,0.409375,
2009-11-20, 00:53:04,VALID,999.117,VALID,0,VALID,92.1963,VALID,0,VALID,24.1092,VALID,20,VALID,0.392969,
2009-11-20, 00:54:04,VALID,999.093,VALID,0,VALID,92.3031,VALID,0,VALID,24.1092,VALID,20,VALID,0.429297,
2009-11-20, 00:55:04,VALID,999.11,VALID,0,VALID,92.2879,VALID,0,VALID,24.1287,VALID,34,VALID,0.659766,
2009-11-20, 00:56:04,VALID,999.11,VALID,0,VALID,92.1734,VALID,0,VALID,24.1092,VALID,34,VALID,0.540234,
2009-11-20, 00:57:04,VALID,999.167,VALID,0,VALID,92.1506,VALID,0,VALID,24.111,VALID,29,VALID,0.504687,
2009-11-20, 00:58:04,VALID,999.119,VALID,0,VALID,92.2192,VALID,0,VALID,24.111,VALID,24,VALID,0.487891,
2009-11-20, 00:59:04,VALID,999.127,VALID,0,VALID,92.2879,VALID,0,VALID,24.1092,VALID,24,VALID,0.479688,
2009-11-20, 01:00:04,VALID,999.098,VALID,0,VALID,92.2879,VALID,0,VALID,24.1305,VALID,24,VALID,0.653906,
2009-11-20, 01:01:04,VALID,999.069,VALID,0,VALID,92.2497,VALID,0,VALID,24.111,VALID,24,VALID,0.712891,
2009-11-20, 01:02:04,VALID,999.041,VALID,0,VALID,92.2955,VALID,0,VALID,24.1092,VALID,24,VALID,0.671875,
2009-11-20, 01:03:04,VALID,999.017,VALID,0,VALID,92.3031,VALID,0,VALID,24.1305,VALID,25,VALID,0.6625,
2009-11-20, 01:04:04,VALID,999.029,VALID,0,VALID,92.2726,VALID,0,VALID,24.1092,VALID,29,VALID,0.427344,
2009-11-20, 01:05:04,VALID,998.985,VALID,0,VALID,92.2879,VALID,0.112286,VALID,24.1287,VALID,30,VALID,0.441406,
2009-11-20, 01:06:04,VALID,998.986,VALID,0,VALID,92.3413,VALID,0,VALID,24.1482,VALID,51,VALID,0.514844,
2009-11-20, 01:07:04,VALID,998.962,VALID,0,VALID,92.3642,VALID,0,VALID,24.1482,VALID,54,VALID,0.494141,
2009-11-20, 01:08:04,VALID,998.948,VALID,0,VALID,92.4634,VALID,0,VALID,24.1872,VALID,62,VALID,0.607031,
2009-11-20, 01:09:04,VALID,998.962,VALID,0,VALID,92.471,VALID,0,VALID,24.2067,VALID,62,VALID,0.335156,
2009-11-20, 01:10:04,VALID,998.974,VALID,0,VALID,92.4481,VALID,0,VALID,24.2476,VALID,62,VALID,0.226563,
2009-11-20, 01:11:04,VALID,998.998,VALID,0,VALID,92.4634,VALID,0,VALID,24.2458,VALID,62,VALID,0,
2009-11-20, 01:12:04,VALID,998.993,VALID,0,VALID,92.4481,VALID,0,VALID,24.2476,VALID,62,VALID,0.124609,
2009-11-20, 01:13:04,VALID,999.011,VALID,0,VALID,92.4557,VALID,0,VALID,24.2263,VALID,62,VALID,0,
2009-11-20, 01:14:04,VALID,998.995,VALID,0,VALID,92.4176,VALID,0,VALID,24.2458,VALID,62,VALID,0,
2009-11-20, 01:15:04,VALID,998.988,VALID,0,VALID,92.4328,VALID,0.112286,VALID,24.2458,VALID,62,VALID,0,
2009-11-20, 01:16:04,VALID,998.967,VALID,0,VALID,92.3718,VALID,0,VALID,24.2671,VALID,62,VALID,0,
2009-11-20, 01:17:04,VALID,998.935,VALID,0,VALID,92.3337,VALID,0.112286,VALID,24.2458,VALID,62,VALID,0,
2009-11-20, 01:18:04,VALID,998.885,VALID,0,VALID,92.2726,VALID,0,VALID,24.2671,VALID,62,VALID,0,
2009-11-20, 01:19:04,VALID,998.914,VALID,0,VALID,92.265,VALID,0,VALID,24.2653,VALID,60,VALID,0,
2009-11-20, 01:20:04,VALID,998.901,VALID,0,VALID,92.2574,VALID,0,VALID,24.2671,VALID,60,VALID,0,
2009-11-20, 01:21:04,VALID,998.888,VALID,0,VALID,92.2345,VALID,0,VALID,24.2671,VALID,60,VALID,0,
2009-11-20, 01:22:04,VALID,998.856,VALID,0,VALID,92.265,VALID,0,VALID,24.2458,VALID,60,VALID,0,
2009-11-20, 01:23:04,VALID,998.88,VALID,0,VALID,92.2803,VALID,0,VALID,24.2866,VALID,60,VALID,0,
2009-11-20, 01:24:04,VALID,998.901,VALID,0,VALID,92.2803,VALID,0,VALID,24.2671,VALID,60,VALID,0,
2009-11-20, 01:25:04,VALID,998.882,VALID,0,VALID,92.2574,VALID,0,VALID,24.2671,VALID,15,VALID,0,
2009-11-20, 01:26:04,VALID,998.935,VALID,0,VALID,92.1963,VALID,0,VALID,24.2458,VALID,1,VALID,0.71875,
2009-11-20, 01:27:04,VALID,998.91,VALID,0,VALID,92.2955,VALID,0,VALID,24.3062,VALID,332,VALID,0.951172,
2009-11-20, 01:28:04,VALID,998.986,VALID,0,VALID,92.3566,VALID,0,VALID,24.3452,VALID,317,VALID,0.821875,
2009-11-20, 01:29:04,VALID,998.975,VALID,0,VALID,92.4176,VALID,0,VALID,24.3647,VALID,323,VALID,0.950781,
2009-11-20, 01:30:04,VALID,998.93,VALID,0,VALID,92.2574,VALID,0,VALID,24.3043,VALID,343,VALID,0.859766,
2009-11-20, 01:31:04,VALID,998.925,VALID,0,VALID,92.0666,VALID,0,VALID,24.3433,VALID,323,VALID,0.586328,
2009-11-20, 01:32:04,VALID,998.933,VALID,0,VALID,91.8759,VALID,0,VALID,24.3629,VALID,329,VALID,0.802344,
2009-11-20, 01:33:04,VALID,998.94,VALID,0,VALID,91.6928,VALID,0,VALID,24.3824,VALID,312,VALID,0.8125,
2009-11-20, 01:34:04,VALID,998.944,VALID,0,VALID,91.5097,VALID,0,VALID,24.4214,VALID,301,VALID,1.5082,
2009-11-20, 01:35:04,VALID,998.952,VALID,0,VALID,91.2808,VALID,0,VALID,24.48,VALID,288,VALID,1.18086,
2009-11-20, 01:36:04,VALID,998.966,VALID,0,VALID,90.8306,VALID,0,VALID,24.5209,VALID,295,VALID,1.34375,
2009-11-20, 01:37:04,VALID,998.957,VALID,0,VALID,90.7238,VALID,0,VALID,24.5599,VALID,288,VALID,0.914453,
2009-11-20, 01:38:04,VALID,998.937,VALID,0,VALID,90.6017,VALID,0,VALID,24.5404,VALID,322,VALID,0.994141,
2009-11-20, 01:39:04,VALID,998.926,VALID,0,VALID,90.6017,VALID,0,VALID,24.5404,VALID,296,VALID,0.451562,
2009-11-20, 01:40:04,VALID,998.87,VALID,0,VALID,90.6399,VALID,0,VALID,24.5209,VALID,324,VALID,0.527734,
2009-11-20, 01:41:04,VALID,998.838,VALID,0,VALID,90.6246,VALID,0,VALID,24.5209,VALID,329,VALID,0.212109,
2009-11-20, 01:42:04,VALID,998.833,VALID,0,VALID,90.6551,VALID,0,VALID,24.5013,VALID,334,VALID,0,
2009-11-20, 01:43:04,VALID,998.789,VALID,0,VALID,90.7314,VALID,0,VALID,24.5209,VALID,334,VALID,0,
2009-11-20, 01:44:04,VALID,998.772,VALID,0,VALID,90.8688,VALID,0,VALID,24.48,VALID,334,VALID,0.233203,
2009-11-20, 01:45:04,VALID,998.743,VALID,0,VALID,90.9069,VALID,0,VALID,24.4604,VALID,334,VALID,0.252734,
2009-11-20, 01:46:04,VALID,998.743,VALID,0,VALID,90.9985,VALID,0,VALID,24.4604,VALID,334,VALID,0.0835937,
2009-11-20, 01:47:04,VALID,998.745,VALID,0,VALID,91.0748,VALID,0,VALID,24.4818,VALID,334,VALID,0.29375,
2009-11-20, 01:48:04,VALID,998.756,VALID,0,VALID,91.2197,VALID,0,VALID,24.4623,VALID,334,VALID,0.453125,
2009-11-20, 01:49:04,VALID,998.733,VALID,0,VALID,91.2808,VALID,0,VALID,24.4409,VALID,334,VALID,0.446484,
2009-11-20, 01:50:04,VALID,998.736,VALID,0,VALID,91.4105,VALID,0,VALID,24.4623,VALID,334,VALID,0.339063,
2009-11-20, 01:51:04,VALID,998.766,VALID,0,VALID,91.4639,VALID,0,VALID,24.4623,VALID,334,VALID,0.278125,
2009-11-20, 01:52:04,VALID,998.793,VALID,0,VALID,91.6394,VALID,0,VALID,24.4409,VALID,334,VALID,0.511719,
2009-11-20, 01:53:04,VALID,998.794,VALID,0,VALID,91.6775,VALID,0,VALID,24.4818,VALID,334,VALID,0.689844,
2009-11-20, 01:54:04,VALID,998.802,VALID,0,VALID,91.7614,VALID,0,VALID,24.4818,VALID,318,VALID,0.479297,
2009-11-20, 01:55:04,VALID,998.797,VALID,0,VALID,91.7691,VALID,0,VALID,24.4818,VALID,334,VALID,0.714063,
2009-11-20, 01:56:04,VALID,998.779,VALID,0,VALID,91.8606,VALID,0,VALID,24.4818,VALID,336,VALID,0.498047,
2009-11-20, 01:57:04,VALID,998.746,VALID,0,VALID,91.8377,VALID,0,VALID,24.4409,VALID,336,VALID,0.517969,
2009-11-20, 01:58:04,VALID,998.743,VALID,0,VALID,91.792,VALID,0,VALID,24.4409,VALID,336,VALID,0.540234,
2009-11-20, 01:59:04,VALID,998.749,VALID,0,VALID,91.792,VALID,0,VALID,24.4428,VALID,336,VALID,0.313281,
2009-11-20, 02:00:04,VALID,998.75,VALID,0,VALID,91.7538,VALID,0,VALID,24.4233,VALID,337,VALID,0.619531,
2009-11-20, 02:01:04,VALID,998.75,VALID,0,VALID,91.7996,VALID,0,VALID,24.4428,VALID,1,VALID,0.717578,
2009-11-20, 02:02:04,VALID,998.778,VALID,0,VALID,91.9293,VALID,0,VALID,24.4428,VALID,1,VALID,0.821094,
2009-11-20, 02:03:04,VALID,998.786,VALID,0,VALID,91.9674,VALID,0,VALID,24.4428,VALID,1,VALID,0.617969,
2009-11-20, 02:04:04,VALID,998.77,VALID,0,VALID,91.998,VALID,0,VALID,24.4428,VALID,356,VALID,0.530469,
2009-11-20, 02:05:04,VALID,998.815,VALID,0,VALID,92.0056,VALID,0,VALID,24.4428,VALID,359,VALID,0.722656,
2009-11-20, 02:06:04,VALID,998.797,VALID,0,VALID,92.0056,VALID,0,VALID,24.4214,VALID,29,VALID,0.955469,
2009-11-20, 02:07:04,VALID,998.808,VALID,0,VALID,92.0361,VALID,0,VALID,24.4409,VALID,33,VALID,0.938281,
2009-11-20, 02:08:04,VALID,998.838,VALID,0,VALID,92.0819,VALID,0,VALID,24.4214,VALID,34,VALID,0.691016,
2009-11-20, 02:09:04,VALID,998.841,VALID,0,VALID,92.0666,VALID,0,VALID,24.4233,VALID,33,VALID,0.540234,
2009-11-20, 02:10:04,VALID,998.881,VALID,0,VALID,92.1582,VALID,0,VALID,24.4233,VALID,21,VALID,0.536719,
2009-11-20, 02:11:04,VALID,998.858,VALID,0,VALID,92.2268,VALID,0,VALID,24.4214,VALID,338,VALID,0.529688,
2009-11-20, 02:12:04,VALID,998.846,VALID,0,VALID,92.2955,VALID,0,VALID,24.4428,VALID,296,VALID,0.817578,
2009-11-20, 02:13:04,VALID,998.841,VALID,0,VALID,92.2803,VALID,0,VALID,24.4233,VALID,296,VALID,0.24375,
2009-11-20, 02:14:04,VALID,998.84,VALID,0,VALID,92.2268,VALID,0,VALID,24.4233,VALID,296,VALID,0.230469,
2009-11-20, 02:15:04,VALID,998.817,VALID,0,VALID,92.2268,VALID,0,VALID,24.4019,VALID,296,VALID,0,
2009-11-20, 02:16:04,VALID,998.813,VALID,0,VALID,92.204,VALID,0,VALID,24.4037,VALID,296,VALID,0,
2009-11-20, 02:17:04,VALID,998.794,VALID,0,VALID,92.1353,VALID,0,VALID,24.4037,VALID,296,VALID,0,
2009-11-20, 02:18:04,VALID,998.762,VALID,0,VALID,92.0743,VALID,0,VALID,24.3842,VALID,296,VALID,0.0910156,
2009-11-20, 02:19:04,VALID,998.782,VALID,0,VALID,92.1277,VALID,0,VALID,24.4037,VALID,296,VALID,0,
2009-11-20, 02:20:04,VALID,998.787,VALID,0,VALID,91.9217,VALID,0,VALID,24.3824,VALID,342,VALID,0.348047,
2009-11-20, 02:21:04,VALID,998.769,VALID,0,VALID,91.7996,VALID,0,VALID,24.3824,VALID,342,VALID,0.478906,
2009-11-20, 02:22:04,VALID,998.756,VALID,0,VALID,91.7843,VALID,0,VALID,24.4037,VALID,55,VALID,0.88125,
2009-11-20, 02:23:04,VALID,998.752,VALID,0,VALID,91.7691,VALID,0,VALID,24.4019,VALID,54,VALID,0.882031,
2009-11-20, 02:24:04,VALID,998.742,VALID,0,VALID,91.9217,VALID,0,VALID,24.4233,VALID,67,VALID,0.983984,
2009-11-20, 02:25:04,VALID,998.707,VALID,0,VALID,91.9064,VALID,0,VALID,24.4233,VALID,58,VALID,1.47852,
2009-11-20, 02:26:04,VALID,998.722,VALID,0,VALID,91.6928,VALID,0,VALID,24.3433,VALID,57,VALID,1.65,
2009-11-20, 02:27:04,VALID,998.733,VALID,0,VALID,91.7538,VALID,0,VALID,24.3257,VALID,47,VALID,1.37422,
2009-11-20, 02:28:04,VALID,998.71,VALID,0,VALID,91.8911,VALID,0,VALID,24.3062,VALID,40,VALID,1.05508,
2009-11-20, 02:29:04,VALID,998.732,VALID,0,VALID,92.0132,VALID,0,VALID,24.3062,VALID,46,VALID,0.89375,
2009-11-20, 02:30:04,VALID,998.715,VALID,0,VALID,92.0971,VALID,0,VALID,24.3062,VALID,51,VALID,0.784766,
2009-11-20, 02:31:04,VALID,998.727,VALID,0,VALID,92.12,VALID,0,VALID,24.2866,VALID,44,VALID,0.78125,
2009-11-20, 02:32:04,VALID,998.742,VALID,0,VALID,92.1506,VALID,0,VALID,24.2866,VALID,43,VALID,0.674609,
2009-11-20, 02:33:04,VALID,998.741,VALID,0,VALID,92.1963,VALID,0,VALID,24.2653,VALID,43,VALID,0.380078,
2009-11-20, 02:34:04,VALID,998.756,VALID,0,VALID,92.1429,VALID,0,VALID,24.2653,VALID,43,VALID,0.495703,
2009-11-20, 02:35:04,VALID,998.772,VALID,0,VALID,92.1429,VALID,0,VALID,24.2848,VALID,43,VALID,0.218359,
2009-11-20, 02:36:04,VALID,998.755,VALID,0,VALID,92.1963,VALID,0,VALID,24.3062,VALID,43,VALID,0,
2009-11-20, 02:37:04,VALID,998.753,VALID,0,VALID,92.2497,VALID,0,VALID,24.3062,VALID,43,VALID,0.240234,
2009-11-20, 02:38:04,VALID,998.776,VALID,0,VALID,92.2497,VALID,0,VALID,24.3062,VALID,43,VALID,0.338672,
2009-11-20, 02:39:04,VALID,998.775,VALID,0,VALID,92.2497,VALID,0,VALID,24.2866,VALID,43,VALID,0.491406,
2009-11-20, 02:40:04,VALID,998.798,VALID,0,VALID,92.1887,VALID,0,VALID,24.2866,VALID,54,VALID,0.6875,
2009-11-20, 02:41:04,VALID,998.814,VALID,0,VALID,92.1353,VALID,0,VALID,24.2653,VALID,64,VALID,0.576563,
2009-11-20, 02:42:04,VALID,998.843,VALID,0,VALID,92.1658,VALID,0,VALID,24.3062,VALID,76,VALID,0.532812,
2009-11-20, 02:43:04,VALID,998.841,VALID,0,VALID,92.2574,VALID,0,VALID,24.3257,VALID,93,VALID,0.750391,
2009-11-20, 02:44:04,VALID,998.847,VALID,0,VALID,92.2726,VALID,0,VALID,24.2848,VALID,96,VALID,0.558594,
2009-11-20, 02:45:04,VALID,998.871,VALID,0,VALID,92.3031,VALID,0,VALID,24.3043,VALID,96,VALID,0.390625,
2009-11-20, 02:46:04,VALID,998.926,VALID,0,VALID,92.3184,VALID,0,VALID,24.3043,VALID,93,VALID,0.260547,
2009-11-20, 02:47:04,VALID,998.911,VALID,0,VALID,92.3108,VALID,0,VALID,24.3062,VALID,92,VALID,0.596094,
2009-11-20, 02:48:04,VALID,998.917,VALID,0,VALID,92.3794,VALID,0,VALID,24.3257,VALID,91,VALID,0.636328,
2009-11-20, 02:49:04,VALID,998.944,VALID,0,VALID,92.4176,VALID,0,VALID,24.3257,VALID,90,VALID,0.54375,
2009-11-20, 02:50:04,VALID,998.926,VALID,0,VALID,92.4023,VALID,0,VALID,24.3257,VALID,83,VALID,0.980078,
2009-11-20, 02:51:04,VALID,998.949,VALID,0,VALID,92.4939,VALID,0,VALID,24.3257,VALID,93,VALID,0.717969,
2009-11-20, 02:52:04,VALID,998.956,VALID,0,VALID,92.5854,VALID,0,VALID,24.3257,VALID,81,VALID,0.725,
2009-11-20, 02:53:04,VALID,998.979,VALID,0,VALID,92.6236,VALID,0,VALID,24.3238,VALID,67,VALID,0.591797,
2009-11-20, 02:54:04,VALID,998.986,VALID,0,VALID,92.677,VALID,0,VALID,24.3452,VALID,77,VALID,0.604297,
2009-11-20, 02:55:04,VALID,999.006,VALID,0,VALID,92.6846,VALID,0,VALID,24.3452,VALID,77,VALID,0.762109,
2009-11-20, 02:56:04,VALID,999.041,VALID,0,VALID,92.6236,VALID,0,VALID,24.3257,VALID,82,VALID,0.807813,
2009-11-20, 02:57:04,VALID,999.068,VALID,0,VALID,92.4405,VALID,0,VALID,24.3062,VALID,87,VALID,0.942969,
2009-11-20, 02:58:04,VALID,999.09,VALID,0,VALID,92.41,VALID,0,VALID,24.3062,VALID,87,VALID,0.597656,
2009-11-20, 02:59:04,VALID,999.095,VALID,0,VALID,92.3947,VALID,0,VALID,24.3062,VALID,87,VALID,0.433984,
2009-11-20, 03:00:04,VALID,999.162,VALID,0,VALID,92.3642,VALID,0,VALID,24.3062,VALID,87,VALID,0.417969,
2009-11-20, 03:01:04,VALID,999.102,VALID,0,VALID,92.2345,VALID,0,VALID,24.2848,VALID,104,VALID,0.960156,
2009-11-20, 03:02:04,VALID,999.116,VALID,0,VALID,92.1658,VALID,0,VALID,24.2866,VALID,104,VALID,0.999609,
2009-11-20, 03:03:04,VALID,999.13,VALID,0,VALID,92.059,VALID,0,VALID,24.2653,VALID,102,VALID,1.23789,
2009-11-20, 03:04:04,VALID,999.145,VALID,0,VALID,92.0361,VALID,0,VALID,24.2653,VALID,103,VALID,1.1957,
2009-11-20, 03:05:04,VALID,999.151,VALID,0,VALID,92.0361,VALID,0,VALID,24.2848,VALID,105,VALID,1.17305,
2009-11-20, 03:06:04,VALID,999.15,VALID,0,VALID,92.1506,VALID,0,VALID,24.3257,VALID,120,VALID,0.8875,
2009-11-20, 03:07:04,VALID,999.116,VALID,0,VALID,92.1124,VALID,0,VALID,24.3043,VALID,117,VALID,1.48242,
2009-11-20, 03:08:04,VALID,999.093,VALID,0,VALID,92.204,VALID,0,VALID,24.3043,VALID,120,VALID,1.26328,
2009-11-20, 03:09:04,VALID,999.117,VALID,0,VALID,92.3184,VALID,0,VALID,24.3433,VALID,119,VALID,1.10742,
2009-11-20, 03:10:04,VALID,999.104,VALID,0,VALID,92.3566,VALID,0,VALID,24.3647,VALID,117,VALID,0.919922,
2009-11-20, 03:11:04,VALID,999.134,VALID,0,VALID,92.4557,VALID,0,VALID,24.3647,VALID,94,VALID,0.828125,
2009-11-20, 03:12:04,VALID,999.156,VALID,0,VALID,92.4634,VALID,0,VALID,24.3842,VALID,87,VALID,0.820703,
2009-11-20, 03:13:04,VALID,999.155,VALID,0,VALID,92.41,VALID,0,VALID,24.3647,VALID,70,VALID,0.765234,
2009-11-20, 03:14:04,VALID,999.153,VALID,0,VALID,92.4023,VALID,0,VALID,24.3452,VALID,66,VALID,0.696094,
2009-11-20, 03:15:04,VALID,999.162,VALID,0,VALID,92.265,VALID,0,VALID,24.3452,VALID,77,VALID,0.605078,
2009-11-20, 03:16:04,VALID,999.163,VALID,0,VALID,92.1887,VALID,0,VALID,24.3238,VALID,77,VALID,0.604297,
2009-11-20, 03:17:04,VALID,999.163,VALID,0,VALID,92.1353,VALID,0,VALID,24.3452,VALID,77,VALID,0.544922,
2009-11-20, 03:18:04,VALID,999.164,VALID,0,VALID,92.0743,VALID,0,VALID,24.3452,VALID,77,VALID,0.333594,
2009-11-20, 03:19:04,VALID,999.188,VALID,0,VALID,92.0056,VALID,0,VALID,24.3043,VALID,77,VALID,0.614062,
2009-11-20, 03:20:04,VALID,999.179,VALID,0,VALID,91.8377,VALID,0,VALID,24.3043,VALID,76,VALID,0.822656,
2009-11-20, 03:21:04,VALID,999.186,VALID,0,VALID,91.7004,VALID,0,VALID,24.3062,VALID,76,VALID,1.04844,
2009-11-20, 03:22:04,VALID,999.198,VALID,0,VALID,91.6928,VALID,0,VALID,24.2848,VALID,75,VALID,0.919531,
2009-11-20, 03:23:04,VALID,999.177,VALID,0,VALID,91.5173,VALID,0,VALID,24.2671,VALID,72,VALID,1.09453,
2009-11-20, 03:24:04,VALID,999.178,VALID,0,VALID,91.4257,VALID,0,VALID,24.2476,VALID,72,VALID,1.09102,
2009-11-20, 03:25:04,VALID,999.173,VALID,0,VALID,91.4868,VALID,0,VALID,24.2476,VALID,74,VALID,1.0332,
2009-11-20, 03:26:04,VALID,999.203,VALID,0,VALID,91.4791,VALID,0,VALID,24.2067,VALID,71,VALID,0.925391,
2009-11-20, 03:27:04,VALID,999.21,VALID,0,VALID,91.4639,VALID,0,VALID,24.2067,VALID,65,VALID,0.762891,
2009-11-20, 03:28:04,VALID,999.255,VALID,0,VALID,91.4868,VALID,0,VALID,24.1677,VALID,59,VALID,0.642969,
2009-11-20, 03:29:04,VALID,999.293,VALID,0,VALID,91.5402,VALID,0,VALID,24.1891,VALID,43,VALID,0.520703,
2009-11-20, 03:30:04,VALID,999.317,VALID,0,VALID,91.5249,VALID,0,VALID,24.15,VALID,35,VALID,0.368359,
2009-11-20, 03:31:04,VALID,999.316,VALID,0,VALID,91.5249,VALID,0,VALID,24.1092,VALID,31,VALID,0.290234,
2009-11-20, 03:32:04,VALID,999.343,VALID,0,VALID,91.6394,VALID,0,VALID,24.111,VALID,5,VALID,0.454688,
2009-11-20, 03:33:04,VALID,999.35,VALID,0,VALID,91.7233,VALID,0,VALID,24.0897,VALID,2,VALID,0.337891,
2009-11-20, 03:34:04,VALID,999.388,VALID,0,VALID,91.8301,VALID,0,VALID,24.0701,VALID,358,VALID,0.468359,
2009-11-20, 03:35:04,VALID,999.391,VALID,0,VALID,91.8301,VALID,0,VALID,24.0915,VALID,358,VALID,0.470313,
2009-11-20, 03:36:04,VALID,999.394,VALID,0,VALID,91.9293,VALID,0,VALID,24.0701,VALID,359,VALID,0.552344,
2009-11-20, 03:37:04,VALID,999.444,VALID,0,VALID,91.8759,VALID,0,VALID,24.072,VALID,13,VALID,0.501562,
2009-11-20, 03:38:04,VALID,999.497,VALID,0,VALID,91.853,VALID,0,VALID,24.0116,VALID,13,VALID,0.417969,
2009-11-20, 03:39:04,VALID,999.501,VALID,0,VALID,91.9751,VALID,0,VALID,24.0116,VALID,13,VALID,0.284375,
2009-11-20, 03:40:04,VALID,999.522,VALID,0,VALID,92.1506,VALID,0,VALID,23.9921,VALID,86,VALID,0.646484,
2009-11-20, 03:41:04,VALID,999.527,VALID,0,VALID,92.2574,VALID,0,VALID,24.0329,VALID,109,VALID,0.802734,
2009-11-20, 03:42:04,VALID,999.519,VALID,0,VALID,92.3108,VALID,0,VALID,24.0329,VALID,109,VALID,0.773438,
2009-11-20, 03:43:04,VALID,999.54,VALID,0,VALID,92.3489,VALID,0,VALID,24.0329,VALID,107,VALID,0.6875,
2009-11-20, 03:44:04,VALID,999.546,VALID,0,VALID,92.3031,VALID,0,VALID,24.0329,VALID,106,VALID,0.430078,
2009-11-20, 03:45:04,VALID,999.514,VALID,0,VALID,92.1963,VALID,0,VALID,23.9939,VALID,106,VALID,0.228516,
2009-11-20, 03:46:04,VALID,999.544,VALID,0,VALID,92.2192,VALID,0,VALID,24.0348,VALID,46,VALID,0.525781,
2009-11-20, 03:47:04,VALID,999.55,VALID,0,VALID,92.2955,VALID,0,VALID,24.0348,VALID,37,VALID,0.657031,
2009-11-20, 03:48:04,VALID,999.568,VALID,0,VALID,92.3871,VALID,0,VALID,24.0329,VALID,34,VALID,0.507813,
2009-11-20, 03:49:04,VALID,999.572,VALID,0,VALID,92.1811,VALID,0,VALID,24.0348,VALID,13,VALID,0.671875,